Time,TemperatureF,DewpointF,PressureIn,WindDirection,WindDirectionDegrees,WindSpeedMPH,WindSpeedGustMPH,Humidity,HourlyPrecipIn,Conditions,Clouds,dailyrainin,SoftwareType,DateUTC
2017-02-26 00:01:00,56.9,43.6,30.07,East,101,0.0,2.0,61,0.00,,,0.00,Wunderground v.1.15,2017-02-26 06:01:00,
2017-02-26 00:06:00,56.7,43.8,30.07,East,101,0.0,2.0,62,0.00,,,0.00,Wunderground v.1.15,2017-02-26 06:06:00,
2017-02-26 00:12:00,56.5,43.6,30.07,East,101,0.0,0.0,62,0.00,,,0.00,Wunderground v.1.15,2017-02-26 06:12:00,
2017-02-26 00:18:00,56.1,43.7,30.07,East,101,0.0,0.0,63,0.00,,,0.00,Wunderground v.1.15,2017-02-26 06:18:00,
2017-02-26 00:24:00,55.7,43.3,30.07,East,101,0.0,1.0,63,0.00,,,0.00,Wunderground v.1.15,2017-02-26 06:24:00,
2017-02-26 00:29:00,55.3,42.9,30.07,East,101,0.0,0.0,63,0.00,,,0.00,Wunderground v.1.15,2017-02-26 06:29:00,
2017-02-26 00:35:00,55.1,42.7,30.07,East,101,2.0,2.0,63,0.00,,,0.00,Wunderground v.1.15,2017-02-26 06:35:00,
2017-02-26 00:41:00,55.0,42.6,30.06,East,101,0.0,1.0,63,0.00,,,0.00,Wunderground v.1.15,2017-02-26 06:41:00,
2017-02-26 00:47:00,55.0,42.6,30.06,East,101,1.0,1.0,63,0.00,,,0.00,Wunderground v.1.15,2017-02-26 06:47:00,
2017-02-26 00:52:00,55.0,42.6,30.06,East,101,0.0,1.0,63,0.00,,,0.00,Wunderground v.1.15,2017-02-26 06:52:00,
2017-02-26 00:58:00,55.0,42.6,30.06,East,101,0.0,1.0,63,0.00,,,0.00,Wunderground v.1.15,2017-02-26 06:58:00,
2017-02-26 01:04:00,55.1,42.7,30.06,East,101,1.0,1.0,63,0.00,,,0.00,Wunderground v.1.15,2017-02-26 07:04:00,
2017-02-26 01:09:00,55.1,42.7,30.05,East,101,0.0,0.0,63,0.00,,,0.00,Wunderground v.1.15,2017-02-26 07:09:00,
2017-02-26 01:15:00,55.1,42.7,30.05,ESE,102,1.0,2.0,63,0.00,,,0.00,Wunderground v.1.15,2017-02-26 07:15:00,
2017-02-26 01:21:00,55.1,43.1,30.05,ESE,102,1.0,1.0,64,0.00,,,0.00,Wunderground v.1.15,2017-02-26 07:21:00,
2017-02-26 01:27:00,55.1,43.1,30.06,ESE,102,0.0,1.0,64,0.00,,,0.00,Wunderground v.1.15,2017-02-26 07:27:00,
2017-02-26 01:32:00,55.0,43.0,30.05,ESE,102,0.0,0.0,64,0.00,,,0.00,Wunderground v.1.15,2017-02-26 07:32:00,
2017-02-26 01:38:00,54.8,42.9,30.05,ESE,102,0.0,0.0,64,0.00,,,0.00,Wunderground v.1.15,2017-02-26 07:38:00,
2017-02-26 01:44:00,54.6,42.7,30.05,ESE,102,0.0,0.0,64,0.00,,,0.00,Wunderground v.1.15,2017-02-26 07:44:00,
2017-02-26 01:50:00,54.4,42.5,30.05,ESE,102,0.0,0.0,64,0.00,,,0.00,Wunderground v.1.15,2017-02-26 07:50:00,
2017-02-26 01:56:00,54.4,42.5,30.04,ESE,102,2.0,2.0,64,0.00,,,0.00,Wunderground v.1.15,2017-02-26 07:56:00,
2017-02-26 02:01:00,54.6,42.7,30.04,ESE,102,0.0,0.0,64,0.00,,,0.00,Wunderground v.1.15,2017-02-26 08:01:00,
2017-02-26 02:06:00,54.6,42.7,30.04,ESE,102,0.0,2.0,64,0.00,,,0.00,Wunderground v.1.15,2017-02-26 08:06:00,
2017-02-26 02:11:00,54.7,42.3,30.03,East,101,0.0,0.0,63,0.00,,,0.00,Wunderground v.1.15,2017-02-26 08:11:00,
2017-02-26 02:16:00,54.7,42.3,30.03,East,101,0.0,2.0,63,0.00,,,0.00,Wunderground v.1.15,2017-02-26 08:16:00,
2017-02-26 02:21:00,54.7,42.3,30.03,East,101,0.0,0.0,63,0.00,,,0.00,Wunderground v.1.15,2017-02-26 08:21:00,
2017-02-26 02:26:00,54.6,42.3,30.03,East,101,0.0,0.0,63,0.00,,,0.00,Wunderground v.1.15,2017-02-26 08:26:00,
2017-02-26 02:31:00,54.5,41.7,30.03,East,101,0.0,0.0,62,0.00,,,0.00,Wunderground v.1.15,2017-02-26 08:31:00,
2017-02-26 02:36:00,54.5,41.7,30.03,East,101,0.0,0.0,62,0.00,,,0.00,Wunderground v.1.15,2017-02-26 08:36:00,
2017-02-26 02:41:00,54.3,41.1,30.03,East,101,0.0,0.0,61,0.00,,,0.00,Wunderground v.1.15,2017-02-26 08:41:00,
2017-02-26 02:46:00,54.2,40.6,30.03,East,101,0.0,0.0,60,0.00,,,0.00,Wunderground v.1.15,2017-02-26 08:46:00,
2017-02-26 02:51:00,54.0,40.4,30.03,East,101,0.0,0.0,60,0.00,,,0.00,Wunderground v.1.15,2017-02-26 08:51:00,
2017-02-26 02:56:00,53.8,40.2,30.03,East,101,0.0,0.0,60,0.00,,,0.00,Wunderground v.1.15,2017-02-26 08:56:00,
2017-02-26 03:01:00,53.5,39.5,30.03,East,101,0.0,0.0,59,0.00,,,0.00,Wunderground v.1.15,2017-02-26 09:01:00,
2017-02-26 03:06:00,53.2,38.8,30.03,East,101,0.0,0.0,58,0.00,,,0.00,Wunderground v.1.15,2017-02-26 09:06:00,
2017-02-26 03:11:00,52.9,37.6,30.03,East,101,0.0,0.0,56,0.00,,,0.00,Wunderground v.1.15,2017-02-26 09:11:00,
2017-02-26 03:16:00,52.6,36.4,30.03,East,101,0.0,0.0,54,0.00,,,0.00,Wunderground v.1.15,2017-02-26 09:16:00,
2017-02-26 03:21:00,52.3,35.2,30.03,East,101,0.0,0.0,52,0.00,,,0.00,Wunderground v.1.15,2017-02-26 09:21:00,
2017-02-26 03:26:00,52.0,33.4,30.03,East,101,0.0,0.0,49,0.00,,,0.00,Wunderground v.1.15,2017-02-26 09:26:00,
2017-02-26 03:31:00,51.7,31.6,30.02,East,101,0.0,0.0,46,0.00,,,0.00,Wunderground v.1.15,2017-02-26 09:31:00,
2017-02-26 03:36:00,51.5,29.7,30.02,East,101,0.0,0.0,43,0.00,,,0.00,Wunderground v.1.15,2017-02-26 09:36:00,
2017-02-26 03:41:00,51.2,27.7,30.02,East,101,0.0,0.0,40,0.00,,,0.00,Wunderground v.1.15,2017-02-26 09:41:00,
2017-02-26 03:46:00,51.0,25.6,30.03,East,101,0.0,0.0,37,0.00,,,0.00,Wunderground v.1.15,2017-02-26 09:46:00,
2017-02-26 03:51:00,50.9,21.3,30.03,East,101,0.0,0.0,31,0.00,,,0.00,Wunderground v.1.15,2017-02-26 09:51:00,
2017-02-26 03:56:00,50.9,13.3,30.02,East,101,0.0,0.0,22,0.00,,,0.00,Wunderground v.1.15,2017-02-26 09:56:00,
2017-02-26 04:01:00,51.0,1.8,30.02,East,101,0.0,0.0,13,0.00,,,0.00,Wunderground v.1.15,2017-02-26 10:01:00,
2017-02-26 04:06:00,51.2,-5.8,30.02,East,101,0.0,0.0,9,0.00,,,0.00,Wunderground v.1.15,2017-02-26 10:06:00,
2017-02-26 04:11:00,51.4,-10.8,30.02,East,101,0.0,0.0,7,0.00,,,0.00,Wunderground v.1.15,2017-02-26 10:11:00,
2017-02-26 04:16:00,51.6,-13.8,30.02,East,101,0.0,0.0,6,0.00,,,0.00,Wunderground v.1.15,2017-02-26 10:16:00,
2017-02-26 04:21:00,51.7,-17.3,30.02,East,101,0.0,0.0,5,0.00,,,0.00,Wunderground v.1.15,2017-02-26 10:21:00,
2017-02-26 04:26:00,51.7,-17.3,30.02,East,101,0.0,0.0,5,0.00,,,0.00,Wunderground v.1.15,2017-02-26 10:26:00,
2017-02-26 04:31:00,51.8,-17.2,30.02,East,101,0.0,0.0,5,0.00,,,0.00,Wunderground v.1.15,2017-02-26 10:31:00,
2017-02-26 04:36:00,51.8,-17.2,30.02,East,101,0.0,0.0,5,0.00,,,0.00,Wunderground v.1.15,2017-02-26 10:36:00,
2017-02-26 04:41:00,51.7,-10.6,30.02,East,101,0.0,0.0,7,0.00,,,0.00,Wunderground v.1.15,2017-02-26 10:41:00,
2017-02-26 04:46:00,51.4,-21.8,30.02,East,101,0.0,0.0,4,0.00,,,0.00,Wunderground v.1.15,2017-02-26 10:46:00,
2017-02-26 04:51:00,51.3,-27.3,30.02,East,101,0.0,0.0,3,0.00,,,0.00,Wunderground v.1.15,2017-02-26 10:51:00,
2017-02-26 04:56:00,51.0,-99.9,30.02,East,101,0.0,0.0,0,0.00,,,0.00,Wunderground v.1.15,2017-02-26 10:56:00,
2017-02-26 05:01:00,50.9,-99.9,30.02,East,101,0.0,0.0,0,0.00,,,0.00,Wunderground v.1.15,2017-02-26 11:01:00,
2017-02-26 05:07:00,50.9,-99.9,30.02,East,101,0.0,0.0,0,0.00,,,0.00,Wunderground v.1.15,2017-02-26 11:07:00,
2017-02-26 05:12:00,50.8,-99.9,30.02,East,101,0.0,0.0,0,0.00,,,0.00,Wunderground v.1.15,2017-02-26 11:12:00,
2017-02-26 05:17:00,50.9,-99.9,30.02,East,101,0.0,0.0,0,0.00,,,0.00,Wunderground v.1.15,2017-02-26 11:17:00,
2017-02-26 05:22:00,51.0,-99.9,30.02,East,101,0.0,0.0,0,0.00,,,0.00,Wunderground v.1.15,2017-02-26 11:22:00,
2017-02-26 05:27:00,51.1,-99.9,30.02,East,101,0.0,0.0,0,0.00,,,0.00,Wunderground v.1.15,2017-02-26 11:27:00,
2017-02-26 05:32:00,51.1,-99.9,30.02,East,101,0.0,0.0,0,0.00,,,0.00,Wunderground v.1.15,2017-02-26 11:32:00,
2017-02-26 05:37:00,51.1,-99.9,30.02,East,101,0.0,0.0,0,0.00,,,0.00,Wunderground v.1.15,2017-02-26 11:37:00,
2017-02-26 05:42:00,51.0,-99.9,30.02,East,101,0.0,0.0,0,0.00,,,0.00,Wunderground v.1.15,2017-02-26 11:42:00,
2017-02-26 05:47:00,50.9,-99.9,30.02,East,101,0.0,0.0,0,0.00,,,0.00,Wunderground v.1.15,2017-02-26 11:47:00,
2017-02-26 05:52:00,50.8,-99.9,30.02,East,101,0.0,0.0,0,0.00,,,0.00,Wunderground v.1.15,2017-02-26 11:52:00,
2017-02-26 05:57:00,50.7,-99.9,30.02,East,101,0.0,0.0,0,0.00,,,0.00,Wunderground v.1.15,2017-02-26 11:57:00,
2017-02-26 06:02:00,50.7,-99.9,30.02,East,101,0.0,0.0,0,0.00,,,0.00,Wunderground v.1.15,2017-02-26 12:02:00,
2017-02-26 06:07:00,50.6,-99.9,30.02,East,101,0.0,0.0,0,0.00,,,0.00,Wunderground v.1.15,2017-02-26 12:07:00,
2017-02-26 06:12:00,50.6,-99.9,30.02,East,101,1.0,1.0,0,0.00,,,0.00,Wunderground v.1.15,2017-02-26 12:12:00,
2017-02-26 06:17:00,50.8,-99.9,30.02,ESE,103,0.0,3.0,0,0.00,,,0.00,Wunderground v.1.15,2017-02-26 12:17:00,
2017-02-26 06:22:00,51.5,-99.9,30.02,ESE,120,3.0,5.0,0,0.00,,,0.00,Wunderground v.1.15,2017-02-26 12:22:00,
2017-02-26 06:27:00,52.8,-99.9,30.02,East,90,3.0,7.0,0,0.00,,,0.00,Wunderground v.1.15,2017-02-26 12:27:00,
2017-02-26 06:32:00,54.6,-99.9,30.02,ESE,114,2.0,5.0,0,0.00,,,0.00,Wunderground v.1.15,2017-02-26 12:32:00,
2017-02-26 06:37:00,56.5,-99.9,30.02,SE,126,7.0,9.0,0,0.00,,,0.00,Wunderground v.1.15,2017-02-26 12:37:00,
2017-02-26 06:42:00,57.9,-99.9,30.02,ESE,110,1.0,7.0,0,0.00,,,0.00,Wunderground v.1.15,2017-02-26 12:42:00,
2017-02-26 06:47:00,58.7,-12.3,30.02,ESE,117,1.0,7.0,5,0.00,,,0.00,Wunderground v.1.15,2017-02-26 12:47:00,
2017-02-26 06:52:00,59.2,-5.0,30.02,East,97,0.0,1.0,7,0.00,,,0.00,Wunderground v.1.15,2017-02-26 12:52:00,
2017-02-26 06:57:00,59.5,-2.0,30.02,ENE,75,5.0,5.0,8,0.00,,,0.00,Wunderground v.1.15,2017-02-26 12:57:00,
2017-02-26 07:02:00,59.7,-1.8,30.02,ESE,114,0.0,5.0,8,0.00,,,0.00,Wunderground v.1.15,2017-02-26 13:02:00,
2017-02-26 07:07:00,60.0,-4.4,30.02,ESE,105,0.0,5.0,7,0.00,,,0.00,Wunderground v.1.15,2017-02-26 13:07:00,
2017-02-26 07:12:00,60.0,-1.6,30.02,ESE,105,2.0,5.0,8,0.00,,,0.00,Wunderground v.1.15,2017-02-26 13:12:00,
2017-02-26 07:17:00,60.3,-4.2,30.02,ESE,115,0.0,5.0,7,0.00,,,0.00,Wunderground v.1.15,2017-02-26 13:17:00,
2017-02-26 07:22:00,60.6,-4.0,30.02,ESE,110,0.0,4.0,7,0.00,,,0.00,Wunderground v.1.15,2017-02-26 13:22:00,
2017-02-26 07:27:00,61.2,-0.7,30.02,ESE,104,0.0,5.0,8,0.00,,,0.00,Wunderground v.1.15,2017-02-26 13:27:00,
2017-02-26 07:32:00,61.6,6.5,30.02,SE,124,5.0,7.0,11,0.00,,,0.00,Wunderground v.1.15,2017-02-26 13:32:00,
2017-02-26 07:37:00,62.1,10.6,30.03,ESE,120,1.0,7.0,13,0.00,,,0.00,Wunderground v.1.15,2017-02-26 13:37:00,
2017-02-26 07:42:00,62.7,14.3,30.03,East,97,1.0,5.0,15,0.00,,,0.00,Wunderground v.1.15,2017-02-26 13:42:00,
2017-02-26 07:47:00,63.1,17.5,30.03,SE,139,0.0,6.0,17,0.00,,,0.00,Wunderground v.1.15,2017-02-26 13:47:00,
2017-02-26 07:52:00,63.6,20.5,30.03,East,88,0.0,6.0,19,0.00,,,0.00,Wunderground v.1.15,2017-02-26 13:52:00,
2017-02-26 07:57:00,64.1,24.4,30.03,ESE,103,0.0,10.0,22,0.00,,,0.00,Wunderground v.1.15,2017-02-26 13:57:00,
2017-02-26 08:02:00,64.6,25.9,30.03,South,186,0.0,9.0,23,0.00,,,0.00,Wunderground v.1.15,2017-02-26 14:02:00,
2017-02-26 08:07:00,65.0,28.3,30.03,ENE,59,10.0,10.0,25,0.00,,,0.00,Wunderground v.1.15,2017-02-26 14:07:00,
2017-02-26 08:12:00,65.5,29.7,30.03,SE,137,5.0,6.0,26,0.00,,,0.00,Wunderground v.1.15,2017-02-26 14:12:00,
2017-02-26 08:17:00,66.0,34.5,30.04,East,98,3.0,7.0,31,0.00,,,0.00,Wunderground v.1.15,2017-02-26 14:17:00,
2017-02-26 08:22:00,66.4,37.9,30.04,East,95,3.0,7.0,35,0.00,,,0.00,Wunderground v.1.15,2017-02-26 14:22:00,
2017-02-26 08:27:00,66.8,39.7,30.04,ENE,74,3.0,7.0,37,0.00,,,0.00,Wunderground v.1.15,2017-02-26 14:27:00,
2017-02-26 08:32:00,67.1,40.6,30.04,SE,126,0.0,3.0,38,0.00,,,0.00,Wunderground v.1.15,2017-02-26 14:32:00,
2017-02-26 08:37:00,67.5,42.3,30.04,ESE,112,0.0,7.0,40,0.00,,,0.00,Wunderground v.1.15,2017-02-26 14:37:00,
2017-02-26 08:43:00,67.9,43.3,30.04,SSE,153,1.0,8.0,41,0.00,,,0.00,Wunderground v.1.15,2017-02-26 14:43:00,
2017-02-26 08:48:00,68.1,47.1,30.05,East,100,4.0,13.0,47,0.00,,,0.00,Wunderground v.1.15,2017-02-26 14:48:00,
2017-02-26 08:53:00,68.4,47.4,30.04,East,98,0.0,6.0,47,0.00,,,0.00,Wunderground v.1.15,2017-02-26 14:53:00,
2017-02-26 08:58:00,68.8,47.2,30.04,SW,230,4.0,10.0,46,0.00,,,0.00,Wunderground v.1.15,2017-02-26 14:58:00,
2017-02-26 09:03:00,69.0,47.9,30.04,SSE,163,2.0,6.0,47,0.00,,,0.00,Wunderground v.1.15,2017-02-26 15:03:00,
2017-02-26 09:08:00,69.0,46.8,30.05,ESE,113,2.0,13.0,45,0.00,,,0.00,Wunderground v.1.15,2017-02-26 15:08:00,
2017-02-26 09:13:00,68.8,46.6,30.05,SE,126,0.0,10.0,45,0.00,,,0.00,Wunderground v.1.15,2017-02-26 15:13:00,
2017-02-26 09:18:00,68.7,45.9,30.05,SSE,167,4.0,10.0,44,0.00,,,0.00,Wunderground v.1.15,2017-02-26 15:18:00,
2017-02-26 09:23:00,68.9,46.1,30.06,SE,138,2.0,9.0,44,0.00,,,0.00,Wunderground v.1.15,2017-02-26 15:23:00,
2017-02-26 09:28:00,69.1,48.0,30.06,South,171,2.0,9.0,47,0.00,,,0.00,Wunderground v.1.15,2017-02-26 15:28:00,
2017-02-26 09:33:00,69.3,48.2,30.05,SSE,163,3.0,11.0,47,0.00,,,0.00,Wunderground v.1.15,2017-02-26 15:33:00,
2017-02-26 09:38:00,69.4,45.9,30.06,East,90,0.0,11.0,43,0.00,,,0.00,Wunderground v.1.15,2017-02-26 15:38:00,
2017-02-26 09:43:00,69.5,46.6,30.06,East,94,4.0,10.0,44,0.00,,,0.00,Wunderground v.1.15,2017-02-26 15:43:00,
2017-02-26 09:48:00,69.5,46.6,30.06,SE,141,0.0,10.0,44,0.00,,,0.00,Wunderground v.1.15,2017-02-26 15:48:00,
2017-02-26 09:53:00,69.5,46.0,30.06,SE,126,1.0,7.0,43,0.00,,,0.00,Wunderground v.1.15,2017-02-26 15:53:00,
2017-02-26 09:58:00,69.6,45.5,30.06,East,97,0.0,7.0,42,0.00,,,0.00,Wunderground v.1.15,2017-02-26 15:58:00,
2017-02-26 10:03:00,69.7,45.6,30.06,SE,146,3.0,11.0,42,0.00,,,0.00,Wunderground v.1.15,2017-02-26 16:03:00,
2017-02-26 10:08:00,69.7,44.9,30.06,ESE,106,3.0,11.0,41,0.00,,,0.00,Wunderground v.1.15,2017-02-26 16:08:00,
2017-02-26 10:13:00,69.9,43.1,30.06,ESE,107,0.0,7.0,38,0.00,,,0.00,Wunderground v.1.15,2017-02-26 16:13:00,
2017-02-26 10:18:00,70.0,43.9,30.06,East,91,0.0,11.0,39,0.00,,,0.00,Wunderground v.1.15,2017-02-26 16:18:00,
2017-02-26 10:23:00,70.1,43.3,30.05,SE,137,0.0,6.0,38,0.00,,,0.00,Wunderground v.1.15,2017-02-26 16:23:00,
2017-02-26 10:29:00,70.3,42.8,30.05,SE,126,4.0,6.0,37,0.00,,,0.00,Wunderground v.1.15,2017-02-26 16:29:00,
2017-02-26 10:34:00,70.4,42.9,30.05,East,91,0.0,11.0,37,0.00,,,0.00,Wunderground v.1.15,2017-02-26 16:34:00,
2017-02-26 10:39:00,70.5,43.0,30.05,ESE,106,5.0,11.0,37,0.00,,,0.00,Wunderground v.1.15,2017-02-26 16:39:00,
2017-02-26 10:44:00,70.6,42.3,30.05,East,101,2.0,11.0,36,0.00,,,0.00,Wunderground v.1.15,2017-02-26 16:44:00,
2017-02-26 10:49:00,70.8,42.5,30.06,ESE,105,0.0,13.0,36,0.00,,,0.00,Wunderground v.1.15,2017-02-26 16:49:00,
2017-02-26 10:54:00,71.0,44.1,30.06,SE,127,1.0,10.0,38,0.00,,,0.00,Wunderground v.1.15,2017-02-26 16:54:00,
2017-02-26 10:59:00,71.3,45.7,30.06,ESE,104,0.0,11.0,40,0.00,,,0.00,Wunderground v.1.15,2017-02-26 16:59:00,
2017-02-26 11:04:00,71.4,46.5,30.06,ESE,104,0.0,11.0,41,0.00,,,0.00,Wunderground v.1.15,2017-02-26 17:04:00,
2017-02-26 11:09:00,71.6,47.9,30.06,ESE,106,7.0,11.0,43,0.00,,,0.00,Wunderground v.1.15,2017-02-26 17:09:00,
2017-02-26 11:14:00,71.7,49.8,30.05,East,88,6.0,13.0,46,0.00,,,0.00,Wunderground v.1.15,2017-02-26 17:14:00,
2017-02-26 11:19:00,71.7,49.8,30.05,SE,124,0.0,13.0,46,0.00,,,0.00,Wunderground v.1.15,2017-02-26 17:19:00,
2017-02-26 11:24:00,71.7,50.4,30.05,ESE,116,3.0,9.0,47,0.00,,,0.00,Wunderground v.1.15,2017-02-26 17:24:00,
2017-02-26 11:29:00,71.8,51.0,30.05,ESE,115,5.0,13.0,48,0.00,,,0.00,Wunderground v.1.15,2017-02-26 17:29:00,
2017-02-26 11:34:00,71.7,50.4,30.05,NE,40,3.0,12.0,47,0.00,,,0.00,Wunderground v.1.15,2017-02-26 17:34:00,
2017-02-26 11:39:00,71.8,50.5,30.05,SE,130,2.0,12.0,47,0.00,,,0.00,Wunderground v.1.15,2017-02-26 17:39:00,
2017-02-26 11:44:00,72.0,52.3,30.05,ESE,104,1.0,10.0,50,0.00,,,0.00,Wunderground v.1.15,2017-02-26 17:44:00,
2017-02-26 11:49:00,72.0,51.8,30.04,ENE,76,4.0,15.0,49,0.00,,,0.00,Wunderground v.1.15,2017-02-26 17:49:00,
2017-02-26 11:54:00,72.2,51.4,30.03,ESE,105,4.0,11.0,48,0.00,,,0.00,Wunderground v.1.15,2017-02-26 17:54:00,
2017-02-26 11:59:00,72.5,53.3,30.03,SSE,162,2.0,14.0,51,0.00,,,0.00,Wunderground v.1.15,2017-02-26 17:59:00,
2017-02-26 12:04:00,72.7,54.1,30.03,East,98,4.0,14.0,52,0.00,,,0.00,Wunderground v.1.15,2017-02-26 18:04:00,
2017-02-26 12:09:00,72.5,54.4,30.03,South,172,4.0,15.0,53,0.00,,,0.00,Wunderground v.1.15,2017-02-26 18:09:00,
2017-02-26 12:14:00,72.8,55.2,30.03,ESE,109,5.0,15.0,54,0.00,,,0.00,Wunderground v.1.15,2017-02-26 18:14:00,
2017-02-26 12:19:00,73.0,55.4,30.02,ESE,105,3.0,15.0,54,0.00,,,0.00,Wunderground v.1.15,2017-02-26 18:19:00,
2017-02-26 12:24:00,73.5,55.3,30.02,East,92,1.0,13.0,53,0.00,,,0.00,Wunderground v.1.15,2017-02-26 18:24:00,
2017-02-26 12:29:00,74.1,56.9,30.01,ESE,105,1.0,13.0,55,0.00,,,0.00,Wunderground v.1.15,2017-02-26 18:29:00,
2017-02-26 12:34:00,74.3,58.1,30.01,SSE,157,3.0,11.0,57,0.00,,,0.00,Wunderground v.1.15,2017-02-26 18:34:00,
2017-02-26 12:39:00,74.8,59.0,30.01,SE,146,0.0,15.0,58,0.00,,,0.00,Wunderground v.1.15,2017-02-26 18:39:00,
2017-02-26 12:44:00,74.9,59.1,30.00,ENE,73,6.0,10.0,58,0.00,,,0.00,Wunderground v.1.15,2017-02-26 18:44:00,
2017-02-26 12:49:00,74.8,59.0,30.00,WSW,245,3.0,4.0,58,0.00,,,0.00,Wunderground v.1.15,2017-02-26 18:49:00,
2017-02-26 12:54:00,74.9,59.1,29.99,SE,145,4.0,14.0,58,0.00,,,0.00,Wunderground v.1.15,2017-02-26 18:54:00,
2017-02-26 12:59:00,74.8,59.5,29.99,East,84,7.0,7.0,59,0.00,,,0.00,Wunderground v.1.15,2017-02-26 18:59:00,
2017-02-26 13:04:00,74.3,57.1,29.99,SE,128,2.0,14.0,55,0.00,,,0.00,Wunderground v.1.15,2017-02-26 19:04:00,
2017-02-26 13:09:00,74.2,57.5,29.99,SE,144,4.0,14.0,56,0.00,,,0.00,Wunderground v.1.15,2017-02-26 19:09:00,
2017-02-26 13:19:00,74.3,58.1,29.98,ESE,114,10.0,15.0,57,0.00,,,0.00,Wunderground v.1.15,2017-02-26 19:19:00,
2017-02-26 13:24:00,73.9,57.7,29.98,East,92,1.0,13.0,57,0.00,,,0.00,Wunderground v.1.15,2017-02-26 19:24:00,
2017-02-26 13:29:00,74.0,57.3,29.98,SSE,153,0.0,13.0,56,0.00,,,0.00,Wunderground v.1.15,2017-02-26 19:29:00,
2017-02-26 13:34:00,74.0,57.3,29.98,ESE,111,1.0,10.0,56,0.00,,,0.00,Wunderground v.1.15,2017-02-26 19:34:00,
2017-02-26 13:39:00,73.8,56.6,29.98,East,85,3.0,13.0,55,0.00,,,0.00,Wunderground v.1.15,2017-02-26 19:39:00,
2017-02-26 13:45:00,73.6,55.9,29.97,East,100,7.0,10.0,54,0.00,,,0.00,Wunderground v.1.15,2017-02-26 19:45:00,
2017-02-26 13:50:00,73.5,55.8,29.97,ESE,109,3.0,7.0,54,0.00,,,0.00,Wunderground v.1.15,2017-02-26 19:50:00,
2017-02-26 13:55:00,73.4,55.2,29.97,ESE,111,1.0,12.0,53,0.00,,,0.00,Wunderground v.1.15,2017-02-26 19:55:00,
2017-02-26 14:00:00,73.4,54.7,29.97,ESE,111,0.0,4.0,52,0.00,,,0.00,Wunderground v.1.15,2017-02-26 20:00:00,
2017-02-26 14:05:00,73.5,54.3,29.97,SSE,165,9.0,10.0,51,0.00,,,0.00,Wunderground v.1.15,2017-02-26 20:05:00,
2017-02-26 14:10:00,73.7,54.4,29.97,ESE,117,0.0,3.0,51,0.00,,,0.00,Wunderground v.1.15,2017-02-26 20:10:00,
2017-02-26 14:15:00,73.8,55.1,29.97,SE,126,0.0,11.0,52,0.00,,,0.00,Wunderground v.1.15,2017-02-26 20:15:00,
2017-02-26 14:20:00,73.8,55.1,29.97,NE,51,1.0,12.0,52,0.00,,,0.00,Wunderground v.1.15,2017-02-26 20:20:00,
2017-02-26 14:25:00,73.6,54.4,29.97,SE,128,4.0,12.0,51,0.00,,,0.00,Wunderground v.1.15,2017-02-26 20:25:00,
2017-02-26 14:30:00,73.4,52.5,29.96,SE,132,1.0,7.0,48,0.00,,,0.00,Wunderground v.1.15,2017-02-26 20:30:00,
2017-02-26 14:35:00,73.3,51.8,29.96,SSW,192,0.0,11.0,47,0.00,,,0.00,Wunderground v.1.15,2017-02-26 20:35:00,
2017-02-26 14:40:00,73.3,51.3,29.96,East,101,5.0,7.0,46,0.00,,,0.00,Wunderground v.1.15,2017-02-26 20:40:00,
2017-02-26 14:45:00,73.5,50.9,29.96,ESE,121,7.0,9.0,45,0.00,,,0.00,Wunderground v.1.15,2017-02-26 20:45:00,
2017-02-26 14:50:00,73.4,50.8,29.96,East,88,6.0,6.0,45,0.00,,,0.00,Wunderground v.1.15,2017-02-26 20:50:00,
2017-02-26 14:55:00,73.4,50.8,29.96,SSE,148,5.0,11.0,45,0.00,,,0.00,Wunderground v.1.15,2017-02-26 20:55:00,
2017-02-26 15:00:00,73.1,49.9,29.96,ESE,112,0.0,6.0,44,0.00,,,0.00,Wunderground v.1.15,2017-02-26 21:00:00,
2017-02-26 15:05:00,72.9,48.5,29.96,SE,127,0.0,10.0,42,0.00,,,0.00,Wunderground v.1.15,2017-02-26 21:05:00,
2017-02-26 15:10:00,72.7,47.6,29.95,SSE,168,4.0,6.0,41,0.00,,,0.00,Wunderground v.1.15,2017-02-26 21:10:00,
2017-02-26 15:15:00,72.5,46.8,29.96,ESE,104,3.0,11.0,40,0.00,,,0.00,Wunderground v.1.15,2017-02-26 21:15:00,
2017-02-26 15:20:00,72.4,43.9,29.96,East,96,2.0,4.0,36,0.00,,,0.00,Wunderground v.1.15,2017-02-26 21:20:00,
2017-02-26 15:25:00,72.3,43.1,29.96,SE,136,0.0,9.0,35,0.00,,,0.00,Wunderground v.1.15,2017-02-26 21:25:00,
2017-02-26 15:30:00,72.3,40.8,29.96,ESE,114,0.0,2.0,32,0.00,,,0.00,Wunderground v.1.15,2017-02-26 21:30:00,
2017-02-26 15:36:00,72.3,40.8,29.96,ESE,106,3.0,11.0,32,0.00,,,0.00,Wunderground v.1.15,2017-02-26 21:36:00,
2017-02-26 15:40:00,72.2,37.3,29.96,ESE,115,4.0,9.0,28,0.00,,,0.00,Wunderground v.1.15,2017-02-26 21:40:00,
2017-02-26 15:45:00,72.0,36.2,29.95,East,84,1.0,11.0,27,0.00,,,0.00,Wunderground v.1.15,2017-02-26 21:45:00,
2017-02-26 15:50:00,71.9,33.1,29.95,SSE,161,0.0,4.0,24,0.00,,,0.00,Wunderground v.1.15,2017-02-26 21:50:00,
2017-02-26 15:55:00,71.9,31.0,29.95,ENE,69,0.0,9.0,22,0.00,,,0.00,Wunderground v.1.15,2017-02-26 21:55:00,
2017-02-26 16:00:00,71.8,30.9,29.95,ESE,119,1.0,3.0,22,0.00,,,0.00,Wunderground v.1.15,2017-02-26 22:00:00,
2017-02-26 16:05:00,71.6,27.1,29.95,ESE,115,0.0,9.0,19,0.00,,,0.00,Wunderground v.1.15,2017-02-26 22:05:00,
2017-02-26 16:10:00,71.6,25.8,29.95,ESE,107,2.0,5.0,18,0.00,,,0.00,Wunderground v.1.15,2017-02-26 22:10:00,
2017-02-26 16:16:00,71.4,22.8,29.95,SE,126,0.0,13.0,16,0.00,,,0.00,Wunderground v.1.15,2017-02-26 22:16:00,
2017-02-26 16:21:00,71.3,19.6,29.95,NE,49,3.0,9.0,14,0.00,,,0.00,Wunderground v.1.15,2017-02-26 22:21:00,
2017-02-26 16:26:00,71.1,17.7,29.94,ESE,107,2.0,12.0,13,0.00,,,0.00,Wunderground v.1.15,2017-02-26 22:26:00,
2017-02-26 16:31:00,70.9,13.7,29.94,ESE,111,0.0,10.0,11,0.00,,,0.00,Wunderground v.1.15,2017-02-26 22:31:00,
2017-02-26 16:36:00,70.7,6.4,29.94,ESE,115,3.0,10.0,8,0.00,,,0.00,Wunderground v.1.15,2017-02-26 22:36:00,
2017-02-26 16:41:00,70.5,3.3,29.94,SE,128,3.0,6.0,7,0.00,,,0.00,Wunderground v.1.15,2017-02-26 22:41:00,
2017-02-26 16:46:00,70.4,-8.5,29.94,ESE,113,0.0,11.0,4,0.00,,,0.00,Wunderground v.1.15,2017-02-26 22:46:00,
2017-02-26 16:51:00,70.3,-14.4,29.94,ESE,117,0.0,2.0,3,0.00,,,0.00,Wunderground v.1.15,2017-02-26 22:51:00,